Powrót do katalogu

FENGYUN 1C DEB

AktywnySSO
NORAD 30703·DEBRIS·🇨🇳 China

Wystrzelony May 10, 1999 z Taiyuan Satellite Launch Center

Loading…

Następne Przeloty (najbliższe 24 godziny)

TLE

ŚwieżeSource: Space-Track

Epoka: Sep 14, 2026, 11:10 UTC

1 30703U 99025ARM 26257.46565814  .00001239  00000-0  56172-3 0  9998
2 30703  99.1591 256.8874 0114543 227.4459 288.0815 14.20424234  4484

Śledź FENGYUN 1C DEB w czasie rzeczywistym z AllMySat

Download on the App Store